Terug naar catalogus

NSTAR B

ActiefCommunicatieGEO
NORAD 23781·PAYLOAD·🇯🇵 Japan

Gelanceerd Feb 5, 1996 vanaf Guiana Space Centre

Loading…

TLE

VersSource: Space-Track

Epoch: Sep 14, 2026, 12:11 UTC

1 23781U 96007A   26257.50814196 -.00000048  00000-0  00000-0 0  9992
2 23781  12.9016  25.1266 0007791 273.1609 259.8249  0.99262090111331

Volg NSTAR B in realtime met AllMySat

Download on the App Store